Theta_e
350 347 349 355 355 355 354 356 357 357 357 357 357 357 357 356 357 356 356 356 356 355 354 354 354 353 353 353 352 352 351 351 351 351 351 351 351 352 353 353 353 352 352 352 353 353 354 354 352 350 349 347 346 349 351 350 350 351 348 347 345 346 349 348 348 348 346 344 342 340 341 343 341 340 340 339 340 341 340 340 336 331 334 334 335
349 347 351 355 354 355 355 355 356 356 356 356 356 357 357 357 356 356 356 355 354 354 353 353 353 353 353 353 352 352 352 351 351 351 350 351 351 351 350 350 350 351 350 350 352 352 352 351 350 350 348 348 350 350 350 349 349 350 351 351 350 350 349 348 347 345 343 343 342 342 342 341 339 339 339 339 343 342 339 337 335 331 332 334 334
350 348 352 355 355 355 355 355 356 356 356 356 356 356 356 356 356 356 356 355 354 353 353 353 353 353 353 352 352 352 351 351 351 351 350 350 350 350 349 349 349 350 350 349 351 352 351 351 349 349 349 348 347 348 348 347 348 349 349 349 350 349 347 346 346 345 344 342 343 344 340 339 339 339 342 343 343 340 338 336 337 336 332 335 335
349 348 352 355 355 354 355 355 355 356 355 355 354 354 354 355 355 355 354 354 354 354 353 353 353 353 352 352 352 352 352 351 351 351 350 350 350 349 350 350 349 348 349 349 349 348 349 350 350 350 348 348 347 346 345 347 347 347 348 348 348 347 346 346 345 345 344 343 343 342 342 341 342 343 343 343 343 341 337 336 335 335 336 335 335
349 349 353 353 354 355 354 355 354 355 354 354 354 354 354 354 355 354 354 353 353 353 353 352 353 352 352 352 352 352 352 351 351 350 350 350 350 348 349 348 348 347 348 348 348 348 348 348 349 348 348 347 346 345 344 345 346 346 346 346 346 346 346 345 345 345 342 341 342 347 339 338 340 342 342 342 343 340 337 335 335 335 335 335 335
349 350 351 352 353 354 354 354 354 354 354 354 355 354 354 354 354 354 354 354 353 353 353 353 353 352 352 353 352 352 352 351 350 350 350 349 350 349 347 346 346 348 347 347 347 347 347 347 348 347 347 346 345 344 344 344 344 345 345 345 345 345 345 344 345 346 346 342 345 345 341 340 339 338 341 340 342 342 339 338 336 336 336 335 334
350 348 349 351 352 353 353 353 354 354 354 354 354 354 354 354 354 354 354 354 354 354 353 353 353 352 353 352 352 351 351 351 350 350 349 349 349 350 347 347 346 345 347 348 348 346 346 347 347 346 346 346 345 345 344 344 344 344 344 345 344 343 343 344 341 344 344 346 349 340 341 340 339 337 340 341 340 340 340 338 335 335 335 336 335
349 348 348 349 351 353 353 354 354 354 354 354 354 354 354 354 353 353 354 353 353 353 353 353 352 352 352 351 351 350 350 350 350 350 350 350 351 350 349 347 346 345 344 344 344 345 346 346 346 345 346 346 345 345 345 345 344 344 344 343 343 342 341 342 342 345 343 345 342 343 342 340 339 337 340 340 338 340 341 338 336 336 335 335 334
346 347 347 349 352 353 353 353 353 353 354 354 354 354 354 354 354 354 354 354 353 353 353 352 352 352 351 351 350 350 349 349 349 350 350 349 349 350 350 347 346 346 345 347 347 347 346 346 346 346 346 346 345 344 344 344 343 343 342 341 343 342 343 342 344 344 344 344 342 340 342 340 340 339 341 340 341 340 340 339 336 335 336 335 334
346 348 349 350 352 353 353 353 353 353 353 353 354 353 353 353 353 353 353 353 353 353 352 352 352 351 351 350 349 349 347 347 349 349 349 348 349 348 348 346 345 345 344 344 343 344 345 346 346 345 346 346 345 345 344 344 343 342 342 342 341 342 342 343 345 345 345 342 341 343 343 348 339 338 337 338 340 341 342 339 337 336 335 334 333
348 349 349 349 353 352 352 352 353 352 352 353 353 353 353 353 353 352 352 353 353 353 352 352 351 350 349 349 349 348 348 348 347 346 346 346 347 347 346 345 346 345 345 345 344 344 344 345 345 346 347 345 345 345 344 344 343 342 342 341 341 342 341 343 343 344 337 334 334 331 331 343 339 337 338 341 340 340 341 339 338 336 333 333 334
347 349 348 350 353 350 351 352 352 352 352 352 352 352 353 353 353 353 353 353 353 352 352 351 351 349 350 350 350 349 348 348 347 346 347 346 347 346 346 346 345 345 345 345 344 344 344 346 347 346 345 345 345 344 344 343 343 342 340 340 341 342 341 343 340 341 340 339 341 341 340 338 337 339 343 343 342 341 341 339 337 335 333 333 333
350 348 350 351 351 351 351 351 352 353 352 352 352 352 352 352 353 353 353 352 352 352 351 351 350 350 350 350 350 349 349 348 346 346 346 346 346 346 346 346 344 345 345 345 344 344 345 347 347 346 345 345 344 343 343 343 341 341 341 340 341 343 343 342 341 341 340 340 338 341 340 337 339 341 342 342 342 341 341 340 337 336 335 335 334
350 347 347 348 350 353 351 351 352 353 353 352 352 352 352 352 352 352 352 352 352 351 351 350 350 350 350 350 349 349 349 348 347 347 344 345 346 346 344 343 344 343 344 344 344 345 345 345 345 345 344 344 343 342 343 342 341 342 342 342 341 343 344 346 345 341 342 340 340 340 341 340 338 341 340 340 340 340 340 339 337 335 335 334 334
350 344 343 346 350 351 353 352 352 353 352 352 351 351 351 351 351 350 351 351 351 351 351 351 350 350 350 350 350 349 349 348 347 346 344 346 347 346 345 344 344 344 344 344 344 344 344 344 345 344 344 344 343 342 342 342 343 343 343 344 343 345 344 342 340 341 340 339 340 340 337 337 342 339 341 340 339 338 337 337 338 336 335 334 333
354 345 343 345 346 351 352 352 352 351 351 351 350 350 350 349 349 350 350 350 350 350 351 351 351 350 350 350 350 349 348 347 347 346 346 346 346 346 345 345 344 345 345 344 344 345 345 344 343 343 343 343 343 342 342 343 344 343 343 343 344 344 344 346 344 340 341 339 339 339 337 338 343 339 338 338 338 337 336 337 336 337 336 334 333
350 347 345 343 347 347 347 349 351 351 350 349 349 349 349 349 349 350 350 350 350 350 351 351 350 349 350 350 349 348 348 347 346 345 346 345 344 345 344 344 344 345 345 345 344 343 343 343 342 342 342 342 342 342 341 342 343 343 342 342 342 343 344 344 343 339 340 338 339 338 339 337 341 338 337 337 337 337 337 336 339 337 335 333 333
350 348 345 345 344 345 346 347 350 351 350 350 349 349 350 349 348 349 349 349 350 350 349 350 350 350 350 350 349 349 349 348 347 345 344 345 345 344 343 344 344 345 344 343 343 342 342 342 342 341 341 342 341 341 341 342 343 343 342 340 342 343 344 345 345 340 338 341 338 339 336 341 341 338 337 337 337 337 337 336 338 337 335 334 333
349 347 346 343 342 345 344 346 351 347 350 350 346 350 348 348 348 349 349 349 349 350 350 349 349 350 350 349 349 349 348 348 347 346 346 346 345 344 344 344 345 344 343 342 341 342 342 341 341 341 340 341 342 342 342 342 343 343 343 341 342 343 344 345 341 337 340 338 340 338 337 339 339 338 338 338 337 336 336 338 339 337 336 336 336
348 348 345 345 346 345 346 350 346 348 349 347 350 348 349 349 349 349 349 349 350 349 349 349 350 350 350 349 349 350 349 349 347 347 346 346 346 344 344 344 344 343 342 342 341 341 341 341 341 341 341 341 342 342 342 342 342 344 343 344 342 343 344 344 339 336 336 335 340 338 340 339 338 338 338 337 336 337 337 337 337 337 336 335 334
343 346 349 347 345 343 345 347 348 348 348 346 347 346 350 349 349 349 349 349 349 349 349 349 349 349 349 349 348 343 342 346 346 347 347 346 346 345 345 344 344 343 342 342 341 341 340 340 341 341 341 342 340 341 342 342 342 343 344 344 343 345 344 342 340 337 336 336 338 338 342 339 340 338 337 337 336 338 337 337 337 336 337 337 336
343 342 343 346 348 345 341 347 348 347 345 347 347 349 350 348 345 348 347 349 349 349 350 348 348 349 348 348 348 345 343 346 346 344 344 345 345 345 345 344 343 343 342 342 341 341 340 339 340 340 340 340 341 339 342 342 341 343 344 345 346 341 343 343 341 336 337 338 338 340 341 340 338 337 336 336 337 336 337 336 337 339 339 337 335
338 338 340 348 350 347 346 344 346 345 346 345 348 347 349 346 351 348 348 346 347 347 345 345 345 345 344 342 347 345 345 345 344 342 341 343 345 344 344 344 343 343 342 342 342 341 341 338 338 339 339 339 339 338 338 338 341 342 344 346 344 341 342 340 341 336 336 337 337 341 340 340 339 338 337 337 336 336 336 338 339 339 338 336 335
339 337 338 345 348 349 344 344 345 345 345 341 346 346 346 345 347 347 346 346 345 342 342 343 342 342 340 343 341 341 344 346 344 344 344 343 344 344 344 343 343 343 342 342 342 342 341 341 339 340 338 338 337 337 338 339 337 340 343 341 341 343 341 339 338 338 336 336 336 340 341 340 338 338 337 335 335 336 339 340 339 338 337 336 335
343 339 341 343 345 346 345 347 347 348 344 344 345 343 344 345 343 344 347 347 347 346 345 340 343 342 340 344 341 340 340 342 344 343 343 345 340 342 340 339 340 341 342 340 338 338 341 337 337 337 338 336 336 338 339 340 342 340 341 342 343 344 342 341 340 334 337 337 339 341 341 339 338 337 337 337 335 334 340 339 338 337 335 335 335
344 343 340 341 343 345 348 345 343 343 346 344 341 345 347 345 345 346 346 348 346 347 346 343 343 344 346 341 340 339 340 342 343 341 339 338 338 338 340 343 340 341 339 343 340 340 338 337 335 335 339 337 338 338 339 340 339 338 338 342 342 341 340 339 338 339 338 336 340 341 340 339 337 337 337 337 336 336 341 339 337 335 333 335 336
342 343 343 340 342 343 343 342 342 343 344 345 345 345 344 343 345 347 344 345 348 344 342 341 344 346 341 339 340 338 338 341 343 344 343 340 337 339 337 340 339 339 338 342 340 339 338 340 336 336 337 337 333 336 337 338 340 337 338 337 339 338 340 338 338 339 338 335 339 340 340 340 338 337 337 337 336 335 335 335 334 333 332 335 336
340 342 342 341 342 341 343 345 345 344 345 346 342 344 347 347 347 347 346 346 344 342 340 340 343 348 338 337 342 339 342 341 342 344 343 342 339 340 341 340 338 337 340 341 337 335 339 336 335 334 333 335 333 334 334 337 338 340 337 336 335 341 339 340 347 339 337 335 338 340 340 340 340 338 337 336 336 336 336 335 335 334 332 333 336
338 340 341 341 341 341 342 345 346 344 345 345 343 342 343 344 347 346 345 346 343 341 343 341 341 341 336 340 342 343 342 341 341 343 343 344 342 343 343 343 341 341 340 341 339 336 337 340 337 333 336 333 334 335 335 336 339 340 340 338 336 336 336 338 337 340 339 339 336 340 340 340 340 339 337 337 336 336 336 335 335 334 332 332 337
339 340 340 342 342 344 342 343 344 344 344 344 345 346 347 344 344 344 345 345 345 344 342 342 345 342 341 340 344 342 343 342 343 342 342 342 343 344 344 342 341 343 343 341 343 338 335 337 339 334 332 334 332 333 332 336 336 338 338 337 338 337 336 337 338 338 337 341 337 338 340 341 340 339 339 338 337 335 335 335 336 335 334 332 336
340 339 339 340 341 340 342 341 342 345 343 343 345 345 343 341 342 344 344 344 347 345 345 344 345 342 339 342 345 345 345 345 344 344 344 344 344 344 343 343 341 342 342 343 342 338 338 338 335 334 332 334 333 331 333 336 336 332 335 335 338 338 338 338 337 337 337 338 338 337 338 340 340 339 339 338 339 337 336 335 335 334 334 334 332
338 337 339 341 342 340 342 341 341 343 344 343 345 343 344 344 343 344 343 347 347 344 343 342 341 342 338 342 345 345 344 344 345 344 344 344 343 343 342 342 341 341 342 344 341 341 340 339 335 337 334 333 333 337 337 335 335 334 334 333 335 337 338 337 334 337 336 337 336 339 338 336 340 339 339 339 338 338 338 338 336 335 335 334 334
340 340 340 341 341 343 341 340 341 343 342 342 342 344 344 342 343 344 344 342 343 341 342 342 342 341 341 342 345 345 345 344 344 342 342 342 343 342 340 342 342 341 342 341 342 340 340 338 333 337 334 334 332 334 335 336 336 335 333 335 337 334 334 335 337 338 335 338 338 337 340 338 339 339 338 339 337 338 338 338 338 336 336 334 334
337 341 342 341 341 342 343 342 342 340 340 341 342 343 342 341 342 341 342 342 342 340 342 340 343 340 342 346 346 346 345 343 340 341 343 342 342 342 341 342 341 340 341 341 340 342 340 336 335 336 334 333 331 332 331 332 334 335 335 336 337 338 339 337 339 338 339 337 338 336 337 338 339 340 339 339 338 338 338 337 338 338 337 336 335
339 341 341 342 343 343 343 344 343 340 340 341 339 341 341 342 339 340 339 340 339 338 340 345 345 345 344 343 346 346 345 341 337 341 341 342 342 341 341 341 343 340 340 341 340 339 337 334 335 333 336 337 332 331 330 331 330 334 336 335 335 335 336 338 339 339 339 341 340 340 338 337 344 336 338 338 340 338 338 339 338 338 338 337 336
341 342 342 343 342 345 345 346 347 342 340 340 341 339 340 340 339 340 340 338 341 340 343 345 344 344 344 343 345 345 345 342 342 342 340 340 338 339 340 343 342 340 340 340 339 337 334 334 335 335 333 334 334 335 336 335 336 336 336 336 337 337 335 336 337 335 336 338 337 339 340 338 337 338 337 339 340 339 337 338 339 339 339 338 338
344 344 343 344 344 346 345 346 346 347 345 343 341 342 340 342 340 336 340 345 348 344 343 344 344 341 340 343 343 344 343 343 342 341 342 339 345 340 340 343 342 341 339 340 338 339 334 334 334 336 335 335 334 332 333 336 336 337 337 337 336 335 335 336 336 336 335 334 335 336 337 337 339 337 338 339 339 339 335 335 337 338 338 338 339
342 344 344 344 344 345 346 346 346 347 346 344 345 346 345 347 345 344 344 343 340 340 336 337 337 336 336 334 338 343 343 343 339 339 336 338 340 340 341 340 341 343 340 339 337 338 336 335 333 336 337 333 334 332 332 333 334 334 335 336 335 337 336 336 337 335 336 334 333 335 335 336 338 338 339 339 341 341 338 334 335 335 336 335 336
343 344 345 344 344 345 343 345 345 346 345 345 346 350 347 345 342 340 339 337 338 334 334 333 335 337 339 341 339 340 342 343 342 338 337 340 339 338 340 338 336 339 340 339 336 337 337 333 333 334 336 336 334 330 333 334 331 331 332 332 336 334 337 336 336 335 333 333 332 332 337 337 338 340 337 335 336 336 339 341 340 339 337 334 335
343 344 343 344 343 342 344 344 345 345 344 345 345 344 341 338 335 336 334 333 335 333 335 333 335 334 337 338 339 342 341 343 342 342 339 342 340 340 338 336 336 339 338 337 335 335 334 332 331 331 332 334 334 336 334 336 332 331 334 333 333 334 333 334 334 333 335 335 334 334 334 335 336 335 334 335 336 337 338 337 339 341 338 336 334
343 342 341 341 340 340 340 341 344 344 342 341 342 338 335 334 334 333 332 330 332 333 334 334 335 335 337 337 340 340 342 342 341 342 343 339 338 340 334 333 338 340 339 338 337 335 334 332 331 331 330 329 330 336 335 332 330 329 331 330 330 333 333 334 335 334 333 333 333 332 330 332 332 333 334 333 334 334 336 335 336 336 338 338 336
340 341 338 336 336 340 340 343 344 342 342 343 341 339 336 334 334 333 333 329 327 330 329 333 332 336 340 340 341 340 342 343 340 339 338 339 338 336 335 335 339 340 338 338 335 334 334 331 331 330 334 334 331 334 333 332 327 326 325 324 328 330 331 334 329 330 333 329 330 329 330 329 329 331 333 332 333 332 333 332 334 334 336 337 336
341 339 338 339 339 340 340 343 343 341 343 344 341 338 337 337 336 334 331 329 334 335 332 332 333 333 338 337 339 340 339 340 343 342 340 339 339 339 337 339 340 339 336 336 334 335 335 330 333 330 330 333 332 336 336 335 325 328 327 325 320 319 325 329 330 330 332 332 330 329 328 326 326 327 330 331 332 332 334 333 335 338 335 335 336
333 337 339 340 338 339 341 343 343 342 340 344 339 340 341 341 340 337 337 335 331 330 331 335 334 332 333 335 337 338 337 340 339 341 340 339 337 336 337 334 332 336 336 333 332 333 333 336 331 334 334 329 330 333 335 333 329 328 320 320 321 321 316 318 324 327 330 327 328 327 327 325 325 326 328 328 328 332 333 333 333 335 334 334 334
327 332 333 330 331 332 334 335 340 339 343 341 340 344 342 341 339 339 337 332 330 329 329 330 333 332 331 333 333 335 334 334 336 340 339 340 340 339 336 335 335 334 334 332 331 333 333 332 334 334 334 330 331 332 332 333 331 332 326 321 319 317 317 320 322 321 325 323 324 324 325 325 324 325 325 326 329 330 330 330 333 334 335 332 333
324 324 325 328 327 326 326 325 327 333 337 342 343 342 338 335 333 329 327 327 326 326 326 326 326 330 329 332 332 332 333 333 333 334 336 340 339 341 339 337 335 335 336 335 333 333 332 332 333 334 333 335 329 329 327 334 334 331 332 332 328 319 317 321 319 313 325 324 324 323 323 323 324 323 324 325 325 325 328 329 332 333 334 334 331
325 326 327 329 328 327 328 326 327 324 326 341 342 339 336 334 333 330 329 329 327 330 329 330 331 328 330 332 331 334 332 332 333 332 333 334 334 334 334 333 333 335 336 335 334 334 332 330 332 332 334 332 332 325 327 327 332 333 333 332 331 329 327 322 319 317 313 319 322 321 321 322 322 322 322 322 323 324 326 327 328 329 330 331 330
328 329 330 331 330 330 330 329 329 330 328 337 337 334 333 332 332 332 332 330 331 328 329 331 331 329 329 328 328 328 330 329 329 330 331 330 332 331 331 331 328 329 327 328 330 330 330 332 332 334 331 331 332 327 326 327 328 326 333 329 330 330 330 329 324 321 316 312 314 319 321 322 322 322 322 321 321 322 323 324 323 324 326 326 327
330 330 330 330 331 332 334 336 337 338 339 340 337 334 334 333 333 334 332 331 328 328 327 327 326 329 327 327 327 325 329 331 331 331 331 329 329 330 330 329 329 329 325 325 328 328 331 335 335 335 334 332 333 334 331 328 328 328 329 330 325 326 328 329 327 323 320 314 312 313 313 317 320 319 321 321 320 321 320 320 320 322 324 324 323
330 330 331 331 331 329 329 330 333 336 339 341 341 336 335 334 332 332 329 326 328 327 326 325 327 327 326 327 325 325 325 328 331 331 331 330 329 330 329 330 330 329 328 328 329 333 337 337 336 336 336 335 335 333 332 330 330 330 329 329 326 325 324 324 327 323 320 317 311 311 313 314 312 315 319 318 318 319 318 320 320 318 319 321 320
330 331 330 331 330 328 327 327 329 331 333 338 340 339 337 333 331 330 327 327 327 327 326 324 324 326 325 325 325 325 326 326 330 331 330 330 331 331 331 330 331 330 328 328 329 331 336 337 337 337 336 334 332 333 332 332 330 329 328 326 326 323 322 322 321 322 319 315 312 312 314 314 311 312 316 317 317 315 315 317 317 317 319 319 319
Wind_Speed
13 17 17 18 15 14 15 14 13 14 15 15 15 15 16 16 16 17 18 17 16 15 14 14 14 14 13 13 12 12 11 11 10 9 9 10 10 11 11 12 13 13 13 14 14 13 14 13 12 11 11 10 10 11 12 12 12 11 9 11 10 11 12 12 13 13 13 14 13 11 12 12 12 12 12 11 13 14 18 19 9 10 9 10 11
17 17 15 16 16 15 15 15 14 15 16 16 16 16 17 17 17 17 17 17 16 15 15 14 14 13 13 13 12 12 11 10 10 10 9 9 9 10 10 11 11 11 11 12 14 13 13 13 12 11 11 11 11 11 11 12 13 11 11 10 11 11 11 12 12 13 13 12 13 13 13 12 12 11 11 13 15 17 17 15 13 10 8 10 10
17 16 15 17 16 16 16 16 15 16 16 16 17 17 17 17 17 17 17 17 16 15 15 14 13 13 12 12 12 11 11 10 10 10 9 9 9 10 9 9 10 10 10 10 12 13 13 12 11 11 11 10 10 10 11 10 12 12 11 11 12 11 11 11 10 10 11 11 12 14 14 13 12 12 13 14 15 16 15 13 13 12 10 12 11
17 15 15 17 18 15 15 16 15 16 16 17 17 18 18 17 17 16 16 16 14 14 14 13 12 12 12 12 11 11 10 10 10 10 9 9 9 10 10 9 9 9 10 10 9 9 11 11 11 11 10 10 10 9 9 10 11 12 12 12 11 10 9 8 5 6 8 11 13 16 9 10 11 12 13 13 14 15 14 12 13 14 14 13 12
16 16 15 15 16 15 15 15 15 16 17 17 17 18 18 18 17 16 16 15 14 14 14 13 12 12 12 11 11 11 10 10 10 9 8 8 8 10 10 10 9 8 8 9 9 9 9 10 10 10 10 10 9 9 8 9 9 10 10 11 10 9 8 4 4 6 8 10 10 9 10 10 9 11 11 13 13 13 14 13 13 14 13 13 13
16 16 15 14 14 16 15 15 16 16 16 17 17 17 18 17 17 17 17 16 15 14 13 12 12 12 11 11 11 11 11 10 9 9 8 8 6 8 8 8 9 10 9 9 8 9 9 9 9 10 10 9 9 9 8 8 9 9 9 9 9 7 3 1 4 3 3 6 10 8 8 8 9 8 11 12 14 13 13 13 11 13 11 12 12
18 15 14 14 13 15 14 14 16 15 16 17 17 17 17 17 16 16 16 15 14 14 13 12 11 11 11 11 11 11 10 10 10 9 9 8 7 6 8 8 7 7 10 10 9 8 8 9 9 9 9 9 9 10 9 9 8 9 9 8 8 5 1 3 3 7 7 6 8 1 5 9 8 8 11 11 10 11 13 14 12 12 13 13 13
15 13 14 14 12 15 14 14 15 16 16 17 17 17 17 16 16 15 15 14 13 13 12 11 11 10 11 11 10 10 10 10 10 9 7 6 5 7 7 8 7 7 6 8 8 7 7 8 8 8 9 9 10 10 10 10 9 9 8 9 8 2 3 5 7 8 9 7 4 5 6 8 9 8 10 10 9 10 12 14 13 11 12 12 10
15 16 15 14 15 18 15 15 14 16 16 16 17 17 16 16 15 14 14 13 12 12 12 11 10 10 10 10 10 9 9 8 8 6 7 7 6 6 6 7 7 6 6 4 4 6 7 7 8 9 9 10 11 10 10 10 10 9 9 8 4 1 5 7 10 10 10 4 6 6 7 8 8 9 10 10 13 12 10 11 13 14 14 13 12
16 15 15 13 15 17 15 15 15 17 17 17 17 17 16 15 15 14 13 13 13 12 11 10 10 9 9 9 9 10 7 7 10 6 9 7 6 7 7 6 7 7 6 5 5 6 7 7 6 8 9 11 10 10 10 9 9 9 7 5 2 4 6 10 11 10 6 8 8 8 11 12 11 10 10 10 12 13 16 18 14 12 11 12 13
16 15 14 15 19 16 16 15 16 17 17 17 17 17 16 15 15 14 14 13 13 12 11 11 10 10 9 9 10 10 8 8 8 8 8 7 6 8 7 4 7 6 7 6 5 5 6 7 7 9 10 10 10 9 9 8 8 7 5 2 2 4 8 10 10 8 5 6 8 6 7 13 9 8 10 11 11 14 16 15 14 13 12 12 13
13 14 15 15 19 16 16 16 16 16 18 18 17 17 16 15 14 13 13 13 12 12 11 10 9 10 10 10 9 10 10 10 13 10 10 8 9 9 7 4 5 7 7 7 6 6 6 7 9 9 10 10 9 8 7 6 5 5 3 1 3 6 8 10 9 1 5 9 5 5 10 11 10 10 12 11 12 13 14 15 14 14 13 12 13
6 11 15 15 16 16 16 16 17 18 19 19 17 17 15 15 13 13 11 10 11 11 11 10 9 9 10 10 9 10 11 11 11 10 11 10 12 9 7 7 5 7 7 7 7 6 7 9 10 8 9 8 7 7 7 5 4 3 2 3 5 6 10 13 8 1 6 5 6 7 10 9 9 11 11 12 12 13 14 15 14 13 12 11 11
4 13 14 15 13 17 16 16 16 17 17 16 16 15 14 13 12 12 11 10 10 11 10 11 10 10 10 10 9 9 10 11 11 13 11 10 12 11 10 7 5 5 7 7 7 8 9 9 8 7 7 6 6 6 6 6 5 4 3 4 7 11 12 11 13 4 4 7 7 8 9 8 9 10 10 11 11 12 13 14 14 13 12 12 11
9 14 16 15 15 16 19 16 16 16 16 16 16 15 14 13 12 12 12 12 12 12 12 13 11 10 10 10 10 10 10 10 10 11 12 13 11 11 10 9 9 8 8 8 8 8 8 9 8 6 6 7 6 4 3 3 4 4 5 4 8 10 11 9 5 5 6 3 6 10 11 9 5 6 11 11 10 12 12 12 13 13 12 12 12
11 16 15 16 16 15 15 17 17 17 17 17 17 17 15 14 14 11 11 12 12 11 12 12 12 10 10 10 10 10 10 9 9 11 12 12 11 10 9 9 9 10 10 9 9 10 10 9 7 5 6 7 6 6 5 4 3 3 3 4 7 9 10 10 6 6 4 4 5 9 9 9 6 8 9 11 10 11 11 11 11 13 13 11 11
12 16 17 17 15 14 14 14 15 17 16 16 16 15 14 15 14 12 11 12 12 12 11 12 12 11 9 10 10 10 10 10 10 11 12 11 11 10 9 9 10 10 11 10 10 9 9 8 7 5 6 6 5 6 5 4 3 2 2 3 6 8 10 11 6 5 5 4 4 7 9 8 8 7 9 10 10 11 11 11 13 12 11 10 11
14 16 17 16 16 14 14 14 14 13 13 13 13 13 12 12 14 13 12 12 11 11 11 11 12 11 11 10 11 11 11 11 10 12 11 11 11 10 8 10 11 11 11 10 10 10 8 8 6 5 5 7 6 5 4 3 3 3 2 2 6 10 10 10 5 6 5 2 8 12 9 10 5 7 8 9 10 9 10 10 11 11 10 11 11
14 15 16 16 16 14 15 13 11 12 12 10 10 10 13 13 12 12 12 11 11 12 10 11 12 11 11 11 11 11 11 11 11 12 10 11 11 10 9 10 11 11 10 9 9 9 8 7 6 5 4 5 7 6 3 3 3 4 4 4 7 9 11 9 3 4 7 6 6 10 9 10 4 8 8 8 9 10 10 11 10 11 11 11 11
11 14 14 14 13 15 12 10 12 10 11 10 9 12 12 13 11 11 11 12 11 10 10 11 12 12 12 12 12 11 11 10 12 9 10 11 9 9 10 11 11 11 11 10 10 9 8 7 6 6 4 3 6 6 6 3 4 4 6 6 7 7 7 4 3 7 5 5 10 9 11 9 6 7 8 8 9 10 10 9 9 9 9 10 10
9 9 6 8 12 14 14 12 10 13 11 11 9 11 11 13 11 12 12 11 11 11 11 12 11 11 11 10 10 9 8 7 7 7 10 8 9 11 10 11 12 12 11 10 10 9 9 8 7 7 6 5 5 7 6 6 5 5 6 7 6 5 2 2 3 5 3 7 9 10 12 5 2 7 7 8 9 9 9 8 8 9 9 10 9
7 10 4 10 8 12 15 9 11 12 11 7 9 7 9 11 10 10 9 11 12 12 10 9 9 8 11 10 6 5 5 5 6 8 5 7 8 8 9 10 11 11 11 10 10 9 9 8 7 8 8 8 8 7 8 7 7 7 8 7 5 4 2 1 1 6 4 8 9 10 12 4 7 7 7 7 8 8 8 8 9 11 11 11 10
12 7 6 8 9 10 10 12 10 12 11 9 6 9 10 7 8 7 6 10 11 11 9 9 8 9 10 8 3 5 4 4 3 3 3 7 8 8 8 9 9 9 10 10 9 8 8 8 8 8 9 10 8 6 4 7 7 9 7 7 5 4 3 2 2 4 3 9 8 13 11 7 6 8 8 8 8 6 7 8 11 11 12 10 10
10 11 7 9 7 7 9 9 11 9 11 9 6 5 5 6 4 5 6 5 9 8 9 8 8 7 9 8 6 4 3 2 5 7 6 5 6 6 7 8 8 8 8 8 9 8 8 8 7 9 7 7 8 5 6 4 6 6 7 5 3 3 4 4 4 5 6 9 9 12 10 6 5 9 9 8 6 7 8 9 11 10 11 10 10
7 14 8 7 8 10 9 9 7 7 8 7 5 6 8 7 6 6 6 7 6 4 4 7 5 7 5 5 10 4 1 3 5 5 2 2 3 4 5 5 4 5 8 4 5 6 7 6 6 7 6 6 7 5 6 5 3 4 4 4 3 3 4 2 3 6 5 8 8 11 10 7 6 8 8 8 7 7 9 9 10 9 8 8 9
8 8 12 8 8 8 9 7 8 8 7 8 7 6 8 7 6 8 8 6 5 3 0 2 3 4 4 9 9 4 4 3 2 5 3 3 2 4 4 1 1 2 5 3 2 2 4 5 6 6 7 7 2 2 3 4 4 5 4 5 3 4 4 5 5 7 7 7 8 11 10 8 6 7 8 8 8 7 11 10 9 8 7 8 8
7 7 10 11 13 13 12 14 15 13 13 13 9 7 9 10 9 8 7 6 3 2 1 3 4 2 9 7 5 5 3 2 2 2 4 4 5 6 4 2 1 0 3 1 2 3 3 5 6 7 3 3 6 5 4 4 3 4 3 7 6 6 2 5 4 8 7 7 8 11 10 9 7 7 8 8 8 7 6 5 5 6 6 8 7
6 8 9 11 10 14 14 10 10 13 11 13 12 8 8 7 7 6 5 5 4 3 4 1 4 6 7 3 4 3 1 2 2 2 2 2 2 2 4 3 3 0 1 1 2 4 6 7 6 6 5 4 5 5 4 4 4 3 4 4 3 3 8 3 5 6 7 7 7 9 10 9 8 8 7 6 7 6 7 7 6 6 5 6 6
10 10 9 10 10 9 13 7 7 10 8 8 11 10 9 7 6 6 6 5 5 3 2 1 1 5 3 1 3 3 2 4 3 4 3 2 2 2 1 2 2 2 1 2 3 5 5 7 6 5 3 3 4 5 6 6 4 4 3 0 2 4 8 7 7 3 5 6 5 7 9 8 7 7 7 5 6 6 6 6 6 6 5 4 7
11 10 10 9 10 9 11 10 7 8 8 7 7 8 8 7 5 4 4 5 4 5 4 4 3 4 3 4 4 4 4 3 4 4 4 4 3 2 2 1 2 3 3 3 1 1 3 3 8 5 5 5 4 3 5 4 6 5 6 2 3 8 5 5 0 5 4 3 7 7 7 7 7 7 6 5 3 4 5 5 6 6 4 5 6
12 11 9 8 9 9 12 10 5 5 7 8 6 8 9 8 6 6 5 6 5 5 5 5 5 5 1 3 5 6 4 2 3 3 4 3 3 3 2 1 2 2 2 1 2 1 3 2 9 4 2 2 3 5 2 4 6 5 6 8 10 2 1 2 2 1 4 1 6 6 7 8 8 6 6 4 3 2 3 5 6 5 5 4 4
11 10 8 8 10 12 13 15 6 3 5 6 6 6 7 9 9 7 6 4 5 4 3 2 3 3 5 5 4 4 4 3 2 3 3 3 3 3 3 3 2 2 3 2 1 2 1 3 8 6 1 2 3 2 5 3 2 4 5 5 7 4 2 4 4 3 5 7 4 5 6 7 7 8 6 5 4 2 2 2 3 5 4 4 5
8 10 9 9 10 8 10 16 12 4 2 6 6 5 5 6 6 5 4 3 3 1 2 3 3 5 4 6 5 5 4 3 3 3 4 4 4 3 3 4 3 3 3 2 2 3 2 5 6 8 2 2 2 2 2 2 2 4 5 7 3 4 3 3 3 1 1 2 4 5 4 5 5 6 7 8 6 4 3 2 1 3 4 3 3
9 9 9 10 9 6 7 10 13 10 2 0 1 4 5 4 3 3 2 3 2 3 1 3 4 7 6 6 5 5 5 4 3 5 5 4 4 4 5 4 3 3 3 3 1 1 2 5 5 5 4 3 4 4 4 3 2 2 6 8 1 2 2 3 3 2 2 3 3 6 4 5 5 4 6 8 9 8 5 3 2 1 1 1 4
10 10 12 12 11 9 8 8 13 14 10 4 1 1 1 2 5 4 2 1 3 2 3 5 3 3 5 5 6 5 6 5 7 5 5 5 3 5 5 4 4 4 4 3 3 1 3 3 3 3 4 3 5 5 5 4 3 4 3 7 3 2 3 3 3 2 2 3 2 3 1 0 3 4 3 3 5 5 6 5 4 2 2 2 2
12 12 12 12 12 11 9 9 10 14 16 10 7 7 3 2 4 6 4 8 9 9 6 4 4 4 4 4 5 4 5 5 4 5 4 5 6 5 5 3 4 4 4 4 3 2 2 2 3 5 4 5 6 5 4 4 4 4 4 6 4 2 3 2 1 2 1 1 4 2 2 2 1 4 4 2 1 5 4 5 5 6 5 4 4
12 12 13 13 12 11 9 10 10 9 9 14 14 9 9 12 14 12 9 5 3 3 4 5 4 4 3 2 4 5 5 6 5 5 4 5 5 4 4 4 4 3 4 5 5 3 3 2 1 5 6 5 2 5 5 5 5 4 4 5 7 4 2 1 2 1 2 1 2 3 3 2 2 3 4 2 3 3 5 2 4 4 2 2 3
11 13 13 12 12 10 9 8 8 7 7 6 5 7 6 6 5 7 7 7 8 7 6 6 4 2 2 3 6 5 5 5 6 5 3 8 1 2 4 6 3 2 4 4 5 3 3 1 2 4 4 1 5 4 5 6 4 5 5 4 4 4 4 3 2 2 2 2 0 0 2 3 3 3 2 1 2 3 3 4 5 2 2 2 2
10 11 11 10 9 8 8 8 8 7 6 5 6 5 5 5 5 6 5 4 4 4 1 2 3 2 1 1 3 4 4 5 5 6 0 5 6 4 5 5 1 3 4 4 5 4 3 2 3 3 4 3 3 6 2 4 1 3 6 6 3 5 3 2 2 2 2 2 2 1 1 1 1 4 6 4 1 2 4 4 4 3 3 3 3
10 9 10 9 10 9 8 8 7 7 6 6 5 5 5 5 5 5 4 3 4 5 3 3 2 2 3 2 2 2 4 4 4 3 7 3 2 2 4 5 5 5 5 5 6 5 5 4 3 4 4 4 4 8 6 3 4 8 2 4 4 2 3 2 2 2 2 2 2 1 1 2 3 4 2 7 3 1 4 2 2 1 2 2 2
11 12 12 9 6 7 9 9 8 8 7 7 5 5 6 5 5 4 4 4 4 4 3 3 3 5 3 3 2 2 3 5 3 4 3 5 4 5 5 5 6 4 4 3 5 6 5 7 4 6 9 8 5 1 1 4 4 5 2 6 3 3 2 2 2 2 1 1 1 1 2 2 3 3 3 3 9 6 1 3 2 3 3 4 2
11 12 10 12 10 9 9 9 9 8 7 6 6 5 5 5 5 5 4 5 5 3 5 4 3 3 2 3 3 2 2 3 6 7 2 4 3 5 5 7 5 2 1 3 3 4 5 3 7 7 7 6 5 4 5 7 2 4 5 1 2 2 2 4 1 3 2 3 2 2 3 1 2 3 3 2 4 6 10 5 3 3 2 3 3
11 11 12 11 10 10 9 9 7 8 7 7 6 5 4 5 3 5 3 4 7 7 6 5 3 5 3 2 2 2 2 3 3 3 4 3 2 3 4 3 3 3 3 2 4 3 3 8 8 7 6 6 4 5 2 2 4 3 0 4 3 5 1 1 2 2 1 2 1 3 2 3 2 3 3 3 4 4 4 6 5 4 3 5 4
5 8 9 10 9 7 9 7 8 6 7 4 6 6 7 6 7 6 6 6 6 5 5 4 4 3 5 3 3 1 1 2 3 4 4 5 4 2 4 5 1 2 1 2 4 4 5 3 5 7 4 5 4 3 5 4 6 5 4 2 4 2 5 4 3 3 3 3 2 3 2 2 3 3 2 3 4 4 4 4 6 5 3 7 5
9 9 8 10 9 11 11 6 4 1 6 5 7 7 8 7 6 6 6 6 4 4 3 4 4 3 3 3 4 2 2 3 2 2 3 3 5 5 8 3 3 3 5 4 3 3 3 6 7 2 4 2 2 3 3 6 4 3 5 3 3 2 2 4 5 3 3 3 4 4 2 2 4 2 3 3 4 5 5 6 5 5 9 11 8
7 7 9 7 8 6 9 7 7 10 2 6 7 6 6 6 5 4 4 2 4 3 3 4 4 3 5 4 4 3 4 3 3 2 3 2 2 1 1 7 9 8 7 9 7 9 10 8 6 4 3 3 6 4 2 3 3 2 3 3 1 1 5 6 5 4 2 4 3 5 5 4 3 3 4 5 7 6 5 5 6 7 7 8 8
6 5 7 9 9 9 7 7 5 5 13 2 5 5 6 4 4 4 2 2 3 3 4 3 2 4 3 3 4 2 2 3 2 2 2 2 2 1 1 1 1 0 1 1 1 1 2 4 4 2 2 1 2 1 3 3 2 3 4 2 1 0 5 7 4 4 6 3 3 3 6 7 7 7 6 6 6 6 5 5 6 6 7 7 8
11 11 13 12 10 7 6 4 5 6 4 5 6 6 3 4 4 3 2 2 4 4 3 3 4 3 3 2 3 2 2 3 2 2 2 2 1 1 0 1 2 3 3 4 3 3 1 2 1 2 4 3 3 3 5 4 3 4 2 6 4 3 7 4 6 4 1 6 5 5 6 6 5 6 6 6 6 6 5 5 6 7 6 8 7
16 15 15 14 13 11 9 7 7 8 5 2 5 6 4 5 4 2 2 3 4 3 3 3 3 3 2 1 1 3 3 2 2 3 1 3 1 1 1 0 2 3 2 2 1 4 2 2 2 1 2 1 1 2 1 2 2 2 3 4 5 4 4 3 5 8 4 6 5 6 5 5 5 5 5 5 5 5 6 5 5 7 6 7 8
12 11 11 12 11 11 12 11 8 5 4 6 7 8 7 6 5 4 4 3 3 3 2 3 3 2 2 1 1 1 3 2 2 3 2 2 2 1 1 2 1 2 4 4 2 3 4 3 3 2 3 3 2 2 1 3 2 3 3 3 4 7 7 8 7 3 2 3 6 6 6 6 6 5 4 5 5 5 6 5 6 7 7 7 8
11 11 10 10 11 11 12 11 7 4 3 2 7 9 8 7 6 6 3 3 3 2 3 2 3 1 3 2 1 1 1 2 2 2 1 2 2 3 3 2 3 3 2 3 2 3 4 4 4 4 4 3 3 3 3 3 3 3 2 1 1 2 1 3 6 6 7 5 6 6 6 7 7 6 4 4 5 6 7 6 6 6 6 6 7
Wind_Direction
129 131 131 127 134 136 134 128 124 121 121 119 116 118 117 116 118 119 118 120 120 121 121 121 120 117 113 110 109 111 111 110 106 103 107 115 121 123 124 122 122 121 124 125 118 118 118 116 115 109 103 102 94 88 76 72 67 64 74 100 101 93 88 88 82 85 87 88 84 78 75 75 73 66 53 55 54 45 40 26 47 67 75 65 46
133 133 130 133 133 132 134 130 126 125 123 121 117 113 116 116 117 116 118 119 122 122 122 121 120 116 114 112 113 115 114 113 111 111 113 120 122 126 129 129 127 127 125 126 120 118 119 117 114 111 108 98 91 90 81 73 71 69 73 82 79 85 88 87 92 86 90 98 96 85 77 74 71 66 66 58 49 50 46 38 41 70 71 63 55
127 130 133 131 131 134 135 133 127 124 122 121 117 116 113 113 115 115 118 119 121 123 123 121 119 118 116 115 115 115 115 114 114 117 119 122 129 128 125 127 130 129 123 121 126 123 120 117 114 115 115 108 99 91 88 83 75 70 76 80 87 84 85 86 96 121 125 124 121 109 98 89 77 67 60 57 59 59 53 51 57 60 68 68 67
131 134 131 132 133 133 134 132 126 125 124 121 122 121 119 115 114 117 118 119 118 121 121 122 118 118 118 116 117 116 116 114 116 120 123 126 131 133 128 132 139 133 128 123 122 128 121 118 117 114 112 111 94 90 95 88 83 79 79 83 83 84 89 98 126 140 132 129 139 144 112 87 76 67 64 63 69 70 69 68 69 70 67 74 74
133 136 129 138 139 134 132 129 128 126 126 123 121 121 121 120 119 119 119 120 121 122 123 123 125 123 123 123 122 119 116 115 115 117 121 126 127 134 141 146 139 139 127 127 129 128 127 122 121 118 115 107 100 95 105 100 90 81 82 83 83 85 81 132 182 166 168 165 180 216 81 92 85 70 70 68 78 82 78 68 66 65 68 65 65
132 136 135 136 139 138 131 130 127 127 125 121 119 120 122 122 121 121 121 124 126 125 126 129 129 129 128 128 125 121 119 120 120 119 121 121 114 126 134 138 139 137 139 139 135 140 138 130 123 119 117 107 103 100 107 114 99 89 87 84 84 82 104 229 252 259 238 181 208 235 92 91 84 85 76 71 72 79 76 68 53 60 83 91 83
131 135 136 136 134 137 132 130 128 127 124 123 119 118 119 120 121 123 123 125 126 127 128 131 132 132 132 130 128 126 128 129 128 127 130 130 130 131 134 131 126 131 140 144 148 144 138 133 127 128 118 110 105 105 108 110 108 92 89 90 85 79 188 253 266 253 236 243 224 164 85 87 90 84 77 71 73 81 80 75 60 54 53 57 60
135 138 136 132 134 133 133 132 130 128 127 123 120 119 121 121 122 123 123 123 126 128 129 130 132 134 134 132 133 133 130 130 132 131 122 99 96 128 127 131 127 128 128 141 142 136 138 137 136 124 116 115 112 109 103 99 98 93 90 82 77 86 254 247 262 281 263 264 59 72 77 83 95 88 78 74 68 60 75 74 69 58 61 59 75
139 140 138 130 130 136 135 133 131 130 125 122 122 122 123 124 123 123 123 122 125 126 129 132 133 134 133 134 129 126 122 131 118 120 111 99 72 71 110 119 127 128 126 116 108 136 141 142 134 128 121 121 115 110 104 93 93 90 82 87 88 187 261 258 244 246 257 226 103 71 42 106 98 90 85 78 60 56 80 95 86 66 57 53 60
139 135 130 132 138 134 135 135 133 130 128 128 125 126 126 126 126 128 128 127 128 129 131 132 132 133 134 131 129 117 129 134 133 134 92 74 83 79 70 111 125 128 123 119 110 111 130 130 127 125 121 121 122 111 98 91 86 85 93 102 164 236 252 278 292 285 288 58 41 55 42 41 85 83 72 70 60 67 72 66 63 58 68 73 70
131 131 134 130 138 133 136 136 134 133 132 131 131 128 128 129 132 134 133 132 130 129 131 134 136 139 135 129 122 125 126 122 121 104 115 128 95 84 78 75 118 124 125 120 116 110 111 125 130 128 126 124 117 107 101 92 87 95 101 124 223 265 273 273 276 271 90 92 80 97 77 74 73 84 96 79 74 69 68 72 70 70 72 76 75
108 127 131 128 133 135 136 137 138 138 139 137 135 134 133 133 133 134 134 133 133 132 130 136 139 139 134 134 135 136 132 142 120 138 132 134 111 104 98 85 119 127 130 123 122 124 125 106 113 128 125 125 124 110 110 106 98 99 115 191 265 266 274 285 277 309 45 58 61 77 82 80 88 86 82 81 81 77 77 76 76 79 76 73 74
85 131 126 129 135 136 138 140 141 140 140 140 138 136 135 136 132 131 130 130 131 128 133 134 136 135 133 134 136 133 132 129 128 130 123 132 127 111 90 81 102 125 125 124 126 120 116 119 118 124 129 131 124 127 128 130 123 117 145 225 260 256 262 252 263 18 67 96 114 85 78 80 81 91 88 85 85 81 78 78 77 77 79 75 65
101 126 129 134 136 139 142 142 141 141 139 135 135 134 131 129 128 124 120 120 123 127 127 128 131 134 132 135 132 130 126 126 131 127 125 140 120 111 102 106 98 115 119 114 111 117 121 119 128 134 129 126 133 141 148 148 141 145 163 213 245 258 264 269 248 81 99 78 61 86 83 79 80 96 92 89 86 78 77 79 77 73 75 71 67
152 141 139 135 143 148 146 142 138 138 138 136 134 130 129 127 125 127 124 128 127 127 129 126 127 132 130 128 127 124 125 128 131 126 136 123 123 121 114 125 129 122 110 110 118 120 116 116 107 102 92 99 105 110 120 127 137 138 157 191 240 261 276 283 293 99 106 140 78 78 86 89 30 86 94 92 85 82 82 80 79 77 70 69 67
166 143 141 144 150 146 146 143 141 141 140 138 135 135 133 134 132 131 127 127 127 129 125 119 123 127 124 122 126 129 128 126 125 125 122 120 123 120 114 111 119 116 114 114 117 112 107 111 117 117 99 94 95 87 74 62 61 114 140 181 242 264 273 285 290 95 75 70 104 94 89 85 40 81 85 81 83 82 80 79 80 81 78 77 76
139 145 146 146 143 149 148 152 144 137 134 134 134 135 135 137 131 127 128 127 131 125 123 122 123 123 124 122 123 124 121 121 122 119 114 127 129 120 119 120 121 119 115 116 121 120 119 121 123 128 117 100 90 85 79 63 71 81 143 223 255 261 263 270 285 101 77 36 72 102 95 92 63 82 84 87 84 84 80 80 83 81 76 75 76
155 149 147 144 151 154 154 147 142 140 135 131 129 132 131 132 133 134 134 134 130 129 133 127 125 124 125 122 120 118 114 117 116 113 125 127 126 125 125 127 126 120 117 120 115 116 121 123 129 131 132 120 118 111 110 99 92 117 166 247 265 267 267 281 275 78 91 127 82 80 86 90 85 98 95 87 88 92 91 86 81 84 86 80 69
153 149 144 151 157 156 152 144 147 147 144 142 145 138 132 133 134 139 138 137 134 133 133 130 126 126 122 120 122 120 120 116 113 116 126 131 129 132 132 128 126 123 121 121 119 115 118 125 129 134 155 134 130 127 130 128 124 158 162 199 256 283 295 289 233 125 89 80 73 82 93 81 101 92 91 102 99 92 88 83 85 87 79 74 77
141 144 151 156 156 157 140 154 156 151 152 140 149 149 141 139 138 135 137 134 130 133 133 128 131 130 128 129 132 129 130 122 122 126 131 137 149 135 133 127 132 133 133 129 126 124 126 132 141 149 154 175 142 143 142 145 163 165 180 187 240 272 275 245 58 101 108 90 88 91 93 95 97 103 103 103 97 90 91 90 91 87 88 80 74
152 128 135 161 160 158 152 164 154 154 153 152 157 152 146 142 140 136 138 132 136 140 135 134 137 141 141 145 154 148 121 124 145 135 153 138 112 127 136 137 136 140 140 137 136 138 139 144 153 166 172 180 181 156 158 168 171 185 178 196 227 254 249 79 152 105 98 79 91 94 89 71 97 98 100 100 102 103 99 99 87 91 96 88 78
160 143 165 183 176 174 155 162 158 159 156 148 151 156 149 155 155 150 152 148 149 148 147 151 153 155 164 163 150 120 139 137 139 147 138 131 135 136 137 139 142 145 147 149 144 146 148 156 165 176 183 186 192 198 172 179 192 181 189 190 214 213 220 101 114 146 117 99 98 103 84 71 117 96 101 106 100 104 109 96 94 93 91 88 82
146 129 192 192 174 175 142 154 167 162 159 151 148 149 155 151 149 152 151 168 159 163 161 160 166 166 174 150 100 67 72 125 117 131 141 126 125 150 141 141 146 153 157 153 156 154 159 163 183 190 196 199 204 208 191 169 174 186 186 199 214 208 151 159 85 40 107 88 95 91 87 73 106 113 102 97 99 114 112 106 108 98 94 91 90
161 133 190 194 172 173 146 181 166 173 165 152 147 127 127 149 138 159 160 185 169 170 169 174 177 180 184 119 104 119 141 131 133 125 140 136 136 146 148 143 153 165 161 165 162 172 173 185 196 213 212 207 198 199 190 172 175 176 190 198 192 162 168 184 143 86 83 90 96 89 88 70 120 127 113 106 101 99 106 115 102 102 101 98 98
175 140 181 179 185 178 163 168 133 143 143 119 130 153 156 157 173 163 194 172 172 178 171 186 175 214 143 112 108 123 143 250 166 149 121 104 155 154 164 178 177 174 181 201 194 169 198 191 196 222 215 210 222 176 195 162 178 185 179 177 172 180 183 153 77 144 111 89 104 96 88 79 108 124 119 106 109 104 107 108 105 97 97 96 98
164 159 158 184 168 206 165 150 134 182 141 131 161 167 160 156 167 176 177 159 164 159 290 317 198 220 115 55 86 120 224 219 151 137 180 141 92 348 310 31 201 252 201 240 239 239 202 236 206 210 219 210 189 164 193 158 179 183 179 114 170 197 205 135 100 83 100 108 110 103 93 92 101 106 119 118 113 114 113 112 106 100 101 105 108
162 171 159 167 185 179 174 122 161 161 165 160 157 173 168 170 175 170 160 150 127 139 8 305 265 212 64 87 131 176 179 187 155 135 178 151 150 161 168 225 173 298 295 330 321 273 260 238 237 227 192 191 190 170 169 183 197 165 193 155 196 215 199 64 113 115 112 110 116 107 105 102 95 104 118 126 121 121 127 107 104 111 109 115 116
161 177 174 166 181 176 134 154 151 162 170 140 160 182 167 148 149 138 143 115 137 109 97 254 343 43 84 161 130 156 190 181 167 153 153 149 144 122 160 159 142 167 331 163 106 324 264 245 224 224 189 174 191 173 172 152 178 195 115 33 328 290 85 95 319 102 111 114 125 119 116 104 97 99 113 120 131 130 135 129 114 113 121 120 119
173 188 173 170 177 162 127 144 151 145 152 156 151 170 149 154 139 157 151 136 123 122 110 356 347 93 173 170 187 142 158 195 192 183 171 185 133 196 173 166 154 151 203 230 162 174 272 298 267 214 178 173 178 196 158 160 177 158 95 74 14 326 80 57 313 336 120 114 115 118 111 99 89 85 104 108 124 135 133 133 118 123 119 119 121
175 171 176 177 163 146 131 159 170 145 146 152 154 147 143 122 132 161 137 132 142 148 168 181 143 142 147 215 161 208 203 197 187 190 191 183 176 163 196 207 193 181 202 216 213 211 111 301 286 239 181 177 157 149 140 190 174 149 152 168 65 55 80 123 149 321 116 131 125 130 110 107 104 95 66 76 98 123 129 128 133 126 127 118 131
170 171 181 178 136 157 155 147 183 152 149 150 154 150 131 136 161 174 154 169 143 152 175 172 159 124 82 229 204 202 202 206 192 188 198 186 183 187 200 208 218 197 217 216 294 57 81 331 282 261 172 174 148 153 140 194 160 153 170 152 102 244 122 61 87 92 182 133 119 132 139 129 130 121 104 80 70 97 100 130 145 138 119 140 136
170 177 180 175 154 175 147 138 151 192 161 123 131 143 146 149 149 163 168 148 153 168 180 170 127 108 178 246 208 187 209 194 201 199 214 196 192 194 191 200 212 212 196 209 252 44 51 59 318 292 296 147 152 170 158 184 130 149 142 92 112 156 197 150 164 187 112 149 147 130 150 150 145 139 133 116 121 106 115 93 106 145 132 125 149
171 183 172 166 163 166 153 137 143 176 219 121 126 134 134 131 144 156 151 144 143 166 211 183 124 104 172 214 199 203 191 185 186 213 210 209 195 194 192 203 205 188 189 229 271 111 116 71 352 296 217 139 112 139 107 116 193 229 152 92 124 92 100 106 107 106 149 105 153 139 151 139 152 148 152 150 136 139 141 122 110 146 151 139 116
174 181 160 162 164 164 149 137 142 151 181 31 159 128 128 123 113 104 160 147 138 171 73 283 189 154 196 185 193 201 198 152 194 218 214 210 193 192 206 197 191 186 163 188 186 175 95 106 209 266 239 160 148 175 142 166 127 109 91 95 348 85 50 79 57 94 92 113 116 149 181 172 154 144 155 166 157 149 144 159 157 180 159 156 137
175 168 168 165 167 164 158 153 149 142 154 187 281 308 111 159 128 87 26 341 33 12 257 211 174 201 192 178 194 193 215 171 203 202 207 211 194 202 206 201 164 174 181 163 160 226 50 69 287 249 254 200 166 180 168 139 158 127 80 113 87 89 110 52 68 40 33 88 85 84 125 2 137 149 124 146 161 151 149 158 156 176 199 250 184
170 170 172 168 170 165 162 152 155 155 150 162 180 167 170 310 86 137 197 181 209 179 176 180 188 200 205 191 191 211 217 213 188 194 190 227 207 200 199 175 158 179 174 147 147 141 53 53 260 258 249 248 179 173 150 129 129 117 109 110 134 95 71 46 3 81 175 120 111 156 150 161 144 115 140 117 189 147 148 166 171 176 188 206 226
174 174 171 171 169 164 164 153 157 149 154 157 162 136 160 194 146 160 186 173 121 139 151 159 180 174 205 155 212 189 207 201 195 175 200 238 226 190 182 160 180 182 172 148 162 136 137 198 185 253 247 253 264 193 142 142 142 134 121 109 118 111 51 111 236 97 70 156 120 152 131 176 160 133 115 197 146 158 149 262 198 214 228 249 241
181 177 176 171 171 163 158 152 149 146 142 148 136 146 151 125 129 123 139 154 164 173 174 164 159 153 209 181 177 195 192 180 188 149 245 233 113 254 154 182 166 147 172 157 162 144 165 211 169 262 269 46 287 289 147 148 202 141 123 90 92 113 146 159 125 189 194 118 253 70 107 141 155 132 82 43 117 157 179 192 238 291 271 284 305
187 175 176 177 167 159 155 146 149 139 135 136 129 120 122 108 103 121 122 137 118 81 70 80 75 85 93 120 170 173 193 176 178 156 188 277 199 167 181 90 57 214 186 171 156 153 106 282 199 261 281 255 306 255 106 64 198 89 97 135 155 120 119 130 178 175 88 31 41 112 192 133 137 106 144 162 202 209 176 168 162 190 188 233 273
186 175 172 172 164 163 150 150 148 140 146 140 139 139 133 119 112 118 119 83 99 94 78 80 122 96 89 105 132 153 160 167 162 171 176 224 351 163 37 121 195 218 199 177 156 150 145 175 207 242 270 245 235 252 122 168 98 79 261 79 100 70 154 132 130 114 140 141 125 163 141 106 80 74 71 152 222 145 153 147 139 58 140 156 295
184 173 168 164 148 154 158 157 151 153 160 156 147 148 138 135 121 120 119 137 97 116 107 79 52 69 35 81 110 127 151 124 160 159 201 169 188 107 134 259 208 189 190 171 149 163 150 145 173 199 210 211 230 264 152 159 99 76 51 72 358 91 90 126 107 85 57 101 142 100 68 58 68 74 54 91 148 176 329 34 108 182 206 136 102
180 165 151 153 181 169 161 159 156 161 164 152 147 147 146 136 146 136 135 129 139 156 123 112 96 98 100 95 102 124 134 142 160 151 190 204 181 126 182 192 167 138 221 133 149 150 141 169 183 230 209 162 217 156 189 91 71 168 154 98 88 150 32 25 282 109 184 144 137 117 98 76 96 64 54 31 60 104 123 147 169 270 143 143 114
172 156 154 156 166 164 157 158 158 157 159 146 152 134 120 104 119 105 109 113 64 44 69 77 111 119 90 78 70 92 129 147 141 128 164 142 164 168 164 144 90 109 233 179 134 156 156 209 207 202 203 179 210 169 105 225 151 136 179 131 144 147 129 310 257 71 110 76 126 112 110 124 85 98 79 42 53 65 89 114 138 176 163 125 114
128 171 152 162 154 164 157 152 153 147 145 150 125 110 93 84 77 85 49 44 85 86 84 90 75 109 124 99 100 90 81 113 121 147 160 128 93 278 43 39 215 230 257 287 140 197 202 160 249 225 219 178 191 145 179 117 172 150 135 174 150 199 160 166 141 150 135 149 177 115 111 85 119 113 131 113 94 97 103 105 132 131 225 89 82
11 4 43 41 18 26 18 16 32 141 112 110 105 101 104 98 90 86 84 83 101 107 122 106 104 78 79 121 107 112 128 86 44 91 121 140 151 187 134 153 145 210 218 180 243 220 199 203 212 232 211 253 319 89 179 173 125 228 139 145 131 164 199 140 145 138 179 154 123 104 69 80 66 68 90 89 117 99 80 78 64 72 80 97 132
94 114 107 119 126 109 73 24 7 306 97 125 117 128 120 112 114 120 119 128 119 143 118 114 133 157 104 86 89 78 62 57 107 74 49 76 99 90 133 155 186 196 172 200 177 182 217 205 210 199 248 112 117 244 89 337 113 142 224 181 234 163 162 163 185 146 78 61 74 91 112 94 99 78 55 57 44 48 60 80 76 77 89 133 120
140 98 99 97 104 109 130 154 149 79 326 133 124 111 100 106 112 122 112 103 99 79 76 99 103 91 104 100 88 84 86 104 48 94 120 109 98 79 96 297 54 281 34 328 192 216 242 263 130 207 128 103 154 154 186 182 194 178 180 95 301 24 149 160 169 146 139 120 86 85 59 54 45 49 60 63 67 59 54 73 74 76 86 85 88
111 114 104 104 104 99 93 88 94 111 207 263 102 101 112 101 110 85 100 135 73 82 108 80 62 86 97 111 120 126 142 101 95 100 112 125 90 113 185 317 252 193 206 191 197 214 219 274 178 165 192 196 170 193 205 184 204 150 177 166 162 139 138 114 94 14 155 143 131 85 77 68 67 61 58 62 67 69 47 39 68 76 62 65 71
141 138 129 124 119 106 93 86 75 91 163 157 114 113 105 116 87 89 94 48 103 123 128 116 107 80 99 92 93 94 87 78 111 106 100 81 131 62 10 313 313 334 246 92 20 97 171 152 142 143 133 178 100 21 40 122 220 113 157 163 166 152 137 138 170 169 229 139 129 125 110 95 90 75 70 73 75 67 56 55 68 82 87 83 74
127 111 114 121 116 103 91 74 62 65 82 97 104 105 103 100 102 53 70 87 80 99 101 105 107 135 107 72 79 126 112 121 134 142 148 144 101 153 204 52 298 348 8 64 106 126 150 137 126 113 110 104 84 132 193 129 176 157 194 142 180 151 166 188 182 138 234 231 131 138 138 134 110 100 113 110 101 91 83 64 54 54 56 72 79
120 116 110 108 105 103 102 102 101 96 47 106 126 122 119 118 121 121 153 87 77 80 103 133 126 157 124 150 192 112 145 113 104 130 87 67 51 31 63 128 70 67 69 108 133 127 130 128 121 109 123 131 133 97 75 80 119 161 180 154 97 163 85 116 127 206 213 130 126 137 154 119 117 114 82 84 102 107 108 101 74 58 69 66 70